Weather History for Tullahoma, TN

Change the Weather History Date:

Monday, September 23, 2013

  Actual Average Record
Temperature  
Mean Temperature 64 °F -  
Max Temperature 80 °F 77 °F 80 °F (2013)
Min Temperature 48 °F 56 °F 48 °F (2013)
Degree Days  
Heating Degree Days 1    
Growing Degree Days 14 (Base 50)    
Moisture  
Dew Point 54 °F    
Average Humidity 72    
Maximum Humidity 94    
Minimum Humidity 42    
Precipitation  
Precipitation 0.00 in - - ()
Sea Level Pressure  
Sea Level Pressure 29.99 in    
Wind  
Wind Speed 2 mph (SSE)    
Max Wind Speed 12 mph    
Max Gust Speed -    
Visibility 10 miles    
Events      
Averages and records for this station are not official NWS values.
T = Trace of Precipitation, MM = Missing Value Source: NWS Daily Summary

Daily Weather History Graph

Daily Weather History Graph

Search for Another Location

Airport:

Trip Planner

Search our weather history database for the weather conditions in past years. The results will help you decide how hot, cold, wet, or windy it might be!

Date:

Astronomy

Sep. 23, 2013 Rise Set
Actual Time 6:33 AM CDT 6:39 PM CDT
Civil Twilight 6:08 AM CDT 7:05 PM CDT
Nautical Twilight 5:38 AM CDT 7:34 PM CDT
Astronomical Twilight 5:08 AM CDT 8:04 PM CDT
Moon 9:21 PM CDT (9/23) 10:42 AM CDT (9/23)
Length of Visible Light 12h 56m
Length of Day
12h 06m
Waning Gibbous, 81% of the Moon is Illuminated
Sep 23
Waning Gibbous
Sep 26
Last Quarter
Oct 4
New
Oct 11
First Quarter
Oct 18
Full

Hourly Weather History & Observations

Time (CDT) Temp. Heat Index Dew Point Humidity Pressure Visibility Wind Dir Wind Speed Gust Speed Precip Events Conditions
12:15 AM 55.4 °F - 51.8 °F 88% 29.95 in 10.0 mi Calm Calm - N/A   Clear
12:35 AM 57.2 °F - 51.8 °F 82% 29.95 in 10.0 mi Calm Calm - N/A   Clear
12:55 AM 53.6 °F - 51.8 °F 94% 29.95 in 10.0 mi Calm Calm - N/A   Clear
1:15 AM 55.4 °F - 51.8 °F 88% 29.95 in 10.0 mi Calm Calm - N/A   Clear
1:35 AM 53.6 °F - 51.8 °F 94% 29.95 in 10.0 mi Calm Calm - N/A   Clear
1:55 AM 53.6 °F - 50.0 °F 88% 29.95 in 10.0 mi Calm Calm - N/A   Clear
2:15 AM 50.0 °F - 46.4 °F 87% 29.95 in 10.0 mi Calm Calm - N/A   Clear
2:35 AM 51.8 °F - 48.2 °F 88% 29.95 in 10.0 mi Calm Calm - N/A   Clear
2:55 AM 51.8 °F - 48.2 °F 88% 29.94 in 10.0 mi Calm Calm - N/A   Clear
3:15 AM 51.8 °F - 50.0 °F 94% 29.95 in 10.0 mi Calm Calm - N/A   Clear
3:35 AM 51.8 °F - 50.0 °F 94% 29.95 in 10.0 mi Calm Calm - N/A   Clear
3:55 AM 50.0 °F - 46.4 °F 87% 29.95 in 10.0 mi Calm Calm - N/A   Clear
4:15 AM 48.2 °F - 46.4 °F 93% 29.96 in 10.0 mi Calm Calm - N/A   Clear
4:35 AM 48.2 °F - 46.4 °F 93% 29.96 in 10.0 mi Calm Calm - N/A   Clear
4:55 AM 48.2 °F - 46.4 °F 93% 29.96 in 1.0 mi Calm Calm - N/A   Mostly Cloudy
5:15 AM 48.2 °F - 46.4 °F 93% 29.97 in 6.0 mi Calm Calm - N/A   Clear
5:35 AM 48.2 °F - 46.4 °F 93% 29.97 in 3.0 mi Calm Calm - N/A   Clear
5:55 AM 48.2 °F - 46.4 °F 93% 29.98 in 10.0 mi Calm Calm - N/A   Clear
6:15 AM 51.8 °F - 50.0 °F 94% 29.99 in 10.0 mi ENE 3.5 mph - N/A   Clear
6:35 AM 51.8 °F - 50.0 °F 94% 29.99 in 7.0 mi Calm Calm - N/A   Clear
6:55 AM 51.8 °F - 50.0 °F 94% 30.00 in 6.0 mi ENE 3.5 mph - N/A   Clear
7:15 AM 53.6 °F - 51.8 °F 94% 30.00 in 10.0 mi East 4.6 mph - N/A   Clear
7:35 AM 53.6 °F - 51.8 °F 94% 30.00 in 10.0 mi East 4.6 mph - N/A   Clear
7:55 AM 55.4 °F - 51.8 °F 88% 30.00 in 10.0 mi East 3.5 mph - N/A   Clear
8:15 AM 57.2 °F - 51.8 °F 82% 30.01 in 10.0 mi ESE 3.5 mph - N/A   Clear
8:35 AM 59.0 °F - 53.6 °F 82% 30.01 in 10.0 mi ESE 3.5 mph - N/A   Clear
8:55 AM 62.6 °F - 53.6 °F 72% 30.01 in 10.0 mi SE 4.6 mph - N/A   Clear
9:15 AM 64.4 °F - 55.4 °F 73% 30.01 in 10.0 mi SSE 4.6 mph - N/A   Clear
9:35 AM 66.2 °F - 55.4 °F 68% 30.02 in 10.0 mi SSE 5.8 mph - N/A   Clear
9:55 AM 68.0 °F - 55.4 °F 64% 30.02 in 10.0 mi South 3.5 mph - N/A   Clear
10:15 AM 69.8 °F - 55.4 °F 60% 30.02 in 10.0 mi SSE 5.8 mph - N/A   Clear
10:35 AM 71.6 °F - 57.2 °F 60% 30.02 in 10.0 mi SW 6.9 mph - N/A   Clear
10:55 AM 73.4 °F - 57.2 °F 57% 30.02 in 10.0 mi SSW 5.8 mph - N/A   Clear
11:15 AM 75.2 °F - 57.2 °F 53% 30.02 in 10.0 mi Variable 6.9 mph - N/A   Clear
11:35 AM 75.2 °F - 57.2 °F 53% 30.01 in 10.0 mi SW 11.5 mph - N/A   Clear
11:55 AM 75.2 °F - 57.2 °F 53% 30.02 in 10.0 mi SW 6.9 mph - N/A   Clear
12:15 PM 77.0 °F - 57.2 °F 50% 30.02 in 10.0 mi SSW 8.1 mph - N/A   Clear
12:35 PM 75.2 °F - 57.2 °F 53% 30.01 in 10.0 mi SSW 8.1 mph - N/A   Partly Cloudy
1:15 PM 78.8 °F - 57.2 °F 47% 30.00 in 10.0 mi West 4.6 mph - N/A   Partly Cloudy
1:35 PM 78.8 °F - 57.2 °F 47% 30.00 in 10.0 mi SW 6.9 mph - N/A   Partly Cloudy
1:55 PM 78.8 °F - 57.2 °F 47% 29.99 in 10.0 mi South 4.6 mph - N/A   Scattered Clouds
2:15 PM 78.8 °F - 57.2 °F 47% 29.99 in 10.0 mi SSE 4.6 mph - N/A   Scattered Clouds
2:35 PM 78.8 °F - 55.4 °F 44% 29.98 in 10.0 mi ESE 8.1 mph - N/A   Partly Cloudy
2:55 PM 80.6 °F 80.5 °F 55.4 °F 42% 29.98 in 10.0 mi SW 6.9 mph - N/A   Partly Cloudy
3:15 PM 80.6 °F 80.5 °F 55.4 °F 42% 29.98 in 10.0 mi SSE 8.1 mph - N/A   Scattered Clouds
3:35 PM 77.0 °F - 57.2 °F 50% 29.98 in 10.0 mi Calm Calm - N/A   Scattered Clouds
3:55 PM 78.8 °F - 57.2 °F 47% 29.98 in 10.0 mi SSE 3.5 mph - N/A   Scattered Clouds
4:15 PM 78.8 °F - 57.2 °F 47% 29.97 in 10.0 mi SSE 4.6 mph - N/A   Partly Cloudy
4:35 PM 78.8 °F - 57.2 °F 47% 29.97 in 10.0 mi South 5.8 mph - N/A   Clear
4:55 PM 78.8 °F - 55.4 °F 44% 29.98 in 10.0 mi SSE 4.6 mph - N/A   Clear
5:15 PM 78.8 °F - 57.2 °F 47% 29.98 in 10.0 mi SSE 5.8 mph - N/A   Clear
5:35 PM 78.8 °F - 55.4 °F 44% 29.98 in 10.0 mi ESE 6.9 mph - N/A   Clear
5:55 PM 77.0 °F - 57.2 °F 50% 29.98 in 10.0 mi SSE 4.6 mph - N/A   Clear
6:15 PM 75.2 °F - 57.2 °F 53% 29.98 in 10.0 mi SSE 5.8 mph - N/A   Partly Cloudy
6:35 PM 73.4 °F - 57.2 °F 57% 29.99 in 10.0 mi SE 3.5 mph - N/A   Clear
6:55 PM 73.4 °F - 57.2 °F 57% 29.99 in 10.0 mi SE 3.5 mph - N/A   Clear
7:15 PM 71.6 °F - 57.2 °F 60% 29.99 in 10.0 mi Calm Calm - N/A   Clear
7:35 PM 71.6 °F - 57.2 °F 60% 29.99 in 10.0 mi Calm Calm - N/A   Clear
7:55 PM 69.8 °F - 59.0 °F 68% 29.99 in 10.0 mi SE 3.5 mph - N/A   Clear
8:15 PM 68.0 °F - 59.0 °F 73% 30.00 in 10.0 mi SE 3.5 mph - N/A   Clear
8:35 PM 66.2 °F - 57.2 °F 73% 30.00 in 10.0 mi Calm Calm - N/A   Clear
8:55 PM 62.6 °F - 57.2 °F 82% 30.01 in 10.0 mi Calm Calm - N/A   Clear
9:15 PM 62.6 °F - 57.2 °F 82% 30.01 in 10.0 mi Calm Calm - N/A   Clear
9:35 PM 62.6 °F - 57.2 °F 82% 30.01 in 10.0 mi Calm Calm - N/A   Clear
9:55 PM 62.6 °F - 57.2 °F 82% 30.02 in 10.0 mi Calm Calm - N/A   Clear
10:15 PM 60.8 °F - 55.4 °F 82% 30.02 in 10.0 mi Calm Calm - N/A   Clear
10:35 PM 60.8 °F - 57.2 °F 88% 30.02 in 10.0 mi Calm Calm - N/A   Clear
10:55 PM 59.0 °F - 55.4 °F 88% 30.02 in 10.0 mi Calm Calm - N/A   Clear
11:15 PM 59.0 °F - 57.2 °F 94% 30.02 in 10.0 mi Calm Calm - N/A   Clear
11:35 PM 57.2 °F - 55.4 °F 94% 30.01 in 10.0 mi Calm Calm - N/A   Clear
11:55 PM 57.2 °F - 55.4 °F 94% 30.01 in 10.0 mi Calm Calm - N/A   Clear